Time,TemperatureF,DewpointF,PressureIn,WindDirection,WindDirectionDegrees,WindSpeedMPH,WindSpeedGustMPH,Humidity,HourlyPrecipIn,Conditions,Clouds,dailyrainin,SoftwareType,DateUTC
2013-10-27 00:05:00,45.8,41.9,30.17,NE,34,0.0,0.0,86,0.00,,,0.00,WeatherTracker,2013-10-27 05:05:00,
2013-10-27 00:10:00,45.7,41.8,30.17,NE,34,0.0,0.0,86,0.00,,,0.00,WeatherTracker,2013-10-27 05:10:00,
2013-10-27 00:15:00,45.6,41.7,30.17,NE,34,0.0,0.0,86,0.00,,,0.00,WeatherTracker,2013-10-27 05:15:00,
2013-10-27 00:25:00,45.5,42.2,30.16,NE,34,0.0,0.0,88,0.00,,,0.00,WeatherTracker,2013-10-27 05:25:00,
2013-10-27 00:30:00,45.3,42.0,30.16,NE,34,0.0,0.0,88,0.00,,,0.00,WeatherTracker,2013-10-27 05:30:00,
2013-10-27 00:35:00,45.1,41.5,30.16,NE,34,0.0,0.0,87,0.00,,,0.00,WeatherTracker,2013-10-27 05:35:00,
2013-10-27 00:45:00,44.7,41.4,30.16,NE,34,0.0,0.0,88,0.00,,,0.00,WeatherTracker,2013-10-27 05:45:00,
2013-10-27 00:50:00,44.5,41.2,30.16,NE,34,0.0,0.0,88,0.00,,,0.00,WeatherTracker,2013-10-27 05:50:00,
2013-10-27 01:00:00,44.2,40.9,30.15,NE,34,0.0,0.0,88,0.00,,,0.00,WeatherTracker,2013-10-27 06:00:00,
2013-10-27 01:05:00,44.1,40.8,30.15,NE,34,0.0,0.0,88,0.00,,,0.00,WeatherTracker,2013-10-27 06:05:00,
2013-10-27 01:15:00,43.8,40.5,30.14,NE,34,0.0,0.0,88,0.00,,,0.00,WeatherTracker,2013-10-27 06:15:00,
2013-10-27 01:20:00,43.8,40.8,30.15,NE,34,0.0,0.0,89,0.00,,,0.00,WeatherTracker,2013-10-27 06:20:00,
2013-10-27 01:25:00,43.7,40.7,30.14,NE,34,0.0,0.0,89,0.00,,,0.00,WeatherTracker,2013-10-27 06:25:00,
2013-10-27 01:35:00,43.6,40.9,30.14,NE,34,0.0,0.0,90,0.00,,,0.00,WeatherTracker,2013-10-27 06:35:00,
2013-10-27 01:40:00,43.5,40.8,30.14,NE,34,0.0,0.0,90,0.00,,,0.00,WeatherTracker,2013-10-27 06:40:00,
2013-10-27 01:45:00,43.5,40.8,30.14,NE,34,0.0,0.0,90,0.00,,,0.00,WeatherTracker,2013-10-27 06:45:00,
2013-10-27 01:50:00,43.4,40.7,30.14,NE,34,0.0,0.0,90,0.00,,,0.00,WeatherTracker,2013-10-27 06:50:00,
2013-10-27 02:00:00,43.4,41.0,30.13,NE,34,0.0,0.0,91,0.00,,,0.00,WeatherTracker,2013-10-27 07:00:00,
2013-10-27 02:10:00,43.3,40.9,30.13,NE,34,0.0,0.0,91,0.00,,,0.00,WeatherTracker,2013-10-27 07:10:00,
2013-10-27 02:15:00,43.4,41.0,30.13,NE,34,0.0,0.0,91,0.00,,,0.00,WeatherTracker,2013-10-27 07:15:00,
2013-10-27 02:20:00,43.4,41.0,30.13,NE,34,0.0,0.0,91,0.00,,,0.00,WeatherTracker,2013-10-27 07:20:00,
2013-10-27 02:30:00,43.3,41.1,30.12,NE,34,0.0,0.0,92,0.00,,,0.00,WeatherTracker,2013-10-27 07:30:00,
2013-10-27 02:40:00,43.2,41.0,30.13,NE,34,0.0,0.0,92,0.00,,,0.00,WeatherTracker,2013-10-27 07:40:00,
2013-10-27 02:45:00,43.2,41.0,30.13,NE,34,0.0,0.0,92,0.00,,,0.00,WeatherTracker,2013-10-27 07:45:00,
2013-10-27 02:55:00,43.0,40.8,30.12,NE,34,0.0,0.0,92,0.00,,,0.00,WeatherTracker,2013-10-27 07:55:00,
2013-10-27 03:00:00,43.0,40.8,30.12,NE,34,0.0,0.0,92,0.00,,,0.00,WeatherTracker,2013-10-27 08:00:00,
2013-10-27 03:05:00,43.0,40.8,30.12,NE,34,0.0,0.0,92,0.00,,,0.00,WeatherTracker,2013-10-27 08:05:00,
2013-10-27 03:15:00,43.0,41.1,30.12,NE,34,0.0,0.0,93,0.00,,,0.00,WeatherTracker,2013-10-27 08:15:00,
2013-10-27 03:25:00,42.9,41.0,30.12,NE,34,0.0,0.0,93,0.00,,,0.00,WeatherTracker,2013-10-27 08:25:00,
2013-10-27 03:35:00,42.9,41.0,30.12,NE,34,0.0,0.0,93,0.00,,,0.00,WeatherTracker,2013-10-27 08:35:00,
2013-10-27 03:45:00,42.9,41.0,30.12,NE,34,0.0,0.0,93,0.00,,,0.00,WeatherTracker,2013-10-27 08:45:00,
2013-10-27 03:50:00,42.9,41.0,30.12,NE,34,0.0,0.0,93,0.00,,,0.00,WeatherTracker,2013-10-27 08:50:00,
2013-10-27 03:55:00,42.8,40.9,30.12,NE,34,0.0,0.0,93,0.00,,,0.00,WeatherTracker,2013-10-27 08:55:00,
2013-10-27 04:00:00,42.8,40.9,30.13,NE,34,0.0,0.0,93,0.00,,,0.00,WeatherTracker,2013-10-27 09:00:00,
2013-10-27 04:10:00,42.8,40.9,30.13,NE,34,0.0,0.0,93,0.00,,,0.00,WeatherTracker,2013-10-27 09:10:00,
2013-10-27 04:15:00,42.8,40.9,30.13,NE,34,0.0,0.0,93,0.00,,,0.00,WeatherTracker,2013-10-27 09:15:00,
2013-10-27 04:20:00,42.8,40.9,30.13,NE,34,0.0,0.0,93,0.00,,,0.00,WeatherTracker,2013-10-27 09:20:00,
2013-10-27 04:25:00,42.9,41.0,30.13,NE,34,0.0,0.0,93,0.00,,,0.00,WeatherTracker,2013-10-27 09:25:00,
2013-10-27 04:35:00,43.1,41.5,30.13,NE,34,0.0,0.0,94,0.00,,,0.00,WeatherTracker,2013-10-27 09:35:00,
2013-10-27 04:40:00,43.1,41.5,30.13,NE,34,0.0,0.0,94,0.00,,,0.00,WeatherTracker,2013-10-27 09:40:00,
2013-10-27 04:45:00,43.1,41.5,30.13,NE,34,0.0,0.0,94,0.00,,,0.00,WeatherTracker,2013-10-27 09:45:00,
2013-10-27 04:50:00,43.1,41.5,30.13,NE,34,0.0,0.0,94,0.00,,,0.00,WeatherTracker,2013-10-27 09:50:00,
2013-10-27 04:55:00,43.1,41.5,30.13,NE,34,0.0,0.0,94,0.00,,,0.00,WeatherTracker,2013-10-27 09:55:00,
2013-10-27 05:00:00,43.0,41.4,30.13,NE,34,0.0,0.0,94,0.00,,,0.00,WeatherTracker,2013-10-27 10:00:00,
2013-10-27 05:10:00,42.9,41.3,30.13,NE,34,0.0,0.0,94,0.00,,,0.00,WeatherTracker,2013-10-27 10:10:00,
2013-10-27 05:20:00,42.7,41.1,30.13,NE,34,0.0,0.0,94,0.00,,,0.00,WeatherTracker,2013-10-27 10:20:00,
2013-10-27 05:30:00,42.6,41.0,30.14,NE,34,0.0,0.0,94,0.00,,,0.00,WeatherTracker,2013-10-27 10:30:00,
2013-10-27 05:35:00,42.6,41.0,30.14,NE,34,0.0,0.0,94,0.00,,,0.00,WeatherTracker,2013-10-27 10:35:00,
2013-10-27 05:40:00,42.6,41.0,30.14,NE,34,0.0,0.0,94,0.00,,,0.00,WeatherTracker,2013-10-27 10:40:00,
2013-10-27 05:50:00,42.5,40.9,30.13,NE,34,0.0,0.0,94,0.00,,,0.00,WeatherTracker,2013-10-27 10:50:00,
2013-10-27 05:55:00,42.5,40.9,30.13,NE,34,0.0,0.0,94,0.00,,,0.00,WeatherTracker,2013-10-27 10:55:00,
2013-10-27 06:00:00,42.5,40.9,30.13,NE,34,0.0,0.0,94,0.00,,,0.00,WeatherTracker,2013-10-27 11:00:00,
2013-10-27 06:10:00,42.3,40.7,30.14,NE,34,0.0,0.0,94,0.00,,,0.00,WeatherTracker,2013-10-27 11:10:00,
2013-10-27 06:20:00,42.2,40.6,30.14,NE,34,0.0,0.0,94,0.00,,,0.00,WeatherTracker,2013-10-27 11:20:00,
2013-10-27 06:35:00,42.2,40.6,30.14,NE,34,0.0,0.0,94,0.00,,,0.00,WeatherTracker,2013-10-27 11:35:00,
2013-10-27 06:40:00,42.2,40.6,30.15,NE,34,0.0,0.0,94,0.00,,,0.00,WeatherTracker,2013-10-27 11:40:00,
2013-10-27 06:50:00,42.0,40.4,30.15,NE,34,0.0,0.0,94,0.00,,,0.00,WeatherTracker,2013-10-27 11:50:00,
2013-10-27 06:55:00,42.0,40.4,30.15,NE,34,0.0,0.0,94,0.00,,,0.00,WeatherTracker,2013-10-27 11:55:00,
2013-10-27 07:05:00,41.9,40.3,30.15,NE,34,0.0,0.0,94,0.00,,,0.00,WeatherTracker,2013-10-27 12:05:00,
2013-10-27 07:15:00,41.9,40.6,30.15,NE,34,0.0,0.0,95,0.00,,,0.00,WeatherTracker,2013-10-27 12:15:00,
2013-10-27 07:20:00,41.9,40.6,30.15,NE,34,0.0,0.0,95,0.00,,,0.00,WeatherTracker,2013-10-27 12:20:00,
2013-10-27 07:25:00,42.0,40.7,30.15,NE,34,0.0,0.0,95,0.00,,,0.00,WeatherTracker,2013-10-27 12:25:00,
2013-10-27 07:30:00,42.3,41.0,30.15,NE,34,0.0,0.0,95,0.00,,,0.00,WeatherTracker,2013-10-27 12:30:00,
2013-10-27 07:40:00,43.4,42.1,30.16,NE,34,0.0,0.0,95,0.00,,,0.00,WeatherTracker,2013-10-27 12:40:00,
2013-10-27 07:50:00,45.0,43.7,30.16,NE,34,0.0,0.0,95,0.00,,,0.00,WeatherTracker,2013-10-27 12:50:00,
2013-10-27 07:55:00,45.8,44.5,30.15,NE,34,0.0,0.0,95,0.00,,,0.00,WeatherTracker,2013-10-27 12:55:00,
2013-10-27 08:05:00,47.6,46.5,30.16,NE,34,0.0,0.0,96,0.00,,,0.00,WeatherTracker,2013-10-27 13:05:00,
2013-10-27 08:10:00,48.6,47.5,30.15,NE,34,0.0,0.0,96,0.00,,,0.00,WeatherTracker,2013-10-27 13:10:00,
2013-10-27 08:20:00,50.0,48.6,30.16,NE,34,0.0,0.0,95,0.00,,,0.00,WeatherTracker,2013-10-27 13:20:00,
2013-10-27 08:25:00,51.1,49.4,30.16,NE,34,0.0,0.0,94,0.00,,,0.00,WeatherTracker,2013-10-27 13:25:00,
2013-10-27 08:35:00,52.7,49.5,30.17,NE,34,0.0,0.0,89,0.00,,,0.00,WeatherTracker,2013-10-27 13:35:00,
2013-10-27 08:40:00,53.4,49.6,30.17,NE,34,0.0,0.0,87,0.00,,,0.00,WeatherTracker,2013-10-27 13:40:00,
2013-10-27 08:45:00,54.2,49.8,30.17,NE,34,0.0,0.0,85,0.00,,,0.00,WeatherTracker,2013-10-27 13:45:00,
2013-10-27 08:50:00,55.1,49.7,30.17,NE,34,0.0,0.0,82,0.00,,,0.00,WeatherTracker,2013-10-27 13:50:00,
2013-10-27 08:55:00,56.2,50.4,30.17,NE,34,0.0,0.0,81,0.00,,,0.00,WeatherTracker,2013-10-27 13:55:00,
2013-10-27 09:05:00,58.4,49.4,30.17,NE,34,0.0,0.0,72,0.00,,,0.00,WeatherTracker,2013-10-27 14:05:00,
2013-10-27 09:10:00,59.7,49.9,30.17,NE,34,0.0,0.0,70,0.00,,,0.00,WeatherTracker,2013-10-27 14:10:00,
2013-10-27 09:20:00,61.2,50.6,30.18,NE,34,0.0,0.0,68,0.00,,,0.00,WeatherTracker,2013-10-27 14:20:00,
2013-10-27 09:30:00,62.2,49.4,30.17,NE,34,0.0,0.0,63,0.00,,,0.00,WeatherTracker,2013-10-27 14:30:00,
2013-10-27 09:40:00,64.1,46.6,30.17,NE,34,0.0,0.0,53,0.00,,,0.00,WeatherTracker,2013-10-27 14:40:00,
2013-10-27 09:45:00,64.3,47.8,30.17,NE,34,0.0,0.0,55,0.00,,,0.00,WeatherTracker,2013-10-27 14:45:00,
2013-10-27 09:50:00,65.0,47.4,30.17,NE,34,0.0,0.0,53,0.00,,,0.00,WeatherTracker,2013-10-27 14:50:00,
2013-10-27 10:05:00,66.4,48.7,30.17,NE,34,0.0,0.0,53,0.00,,,0.00,WeatherTracker,2013-10-27 15:05:00,
2013-10-27 10:10:00,67.2,49.5,30.17,NE,53,0.0,0.0,53,0.00,,,0.00,WeatherTracker,2013-10-27 15:10:00,
2013-10-27 10:15:00,67.7,49.4,30.18,NE,53,0.0,0.0,52,0.00,,,0.00,WeatherTracker,2013-10-27 15:15:00,
2013-10-27 10:20:00,68.7,49.8,30.17,NE,53,0.0,0.0,51,0.00,,,0.00,WeatherTracker,2013-10-27 15:20:00,
2013-10-27 10:25:00,69.1,49.7,30.18,ENE,57,0.0,0.0,50,0.00,,,0.00,WeatherTracker,2013-10-27 15:25:00,
2013-10-27 10:35:00,69.7,49.7,30.18,South,179,0.0,5.0,49,0.00,,,0.00,WeatherTracker,2013-10-27 15:35:00,
2013-10-27 10:40:00,69.7,49.1,30.18,South,179,0.0,5.0,48,0.00,,,0.00,WeatherTracker,2013-10-27 15:40:00,
2013-10-27 10:50:00,69.9,49.3,30.18,South,185,0.0,5.0,48,0.00,,,0.00,WeatherTracker,2013-10-27 15:50:00,
2013-10-27 10:55:00,70.6,49.9,30.18,South,186,0.0,5.0,48,0.00,,,0.00,WeatherTracker,2013-10-27 15:55:00,
2013-10-27 11:00:00,71.4,49.5,30.18,ESE,113,0.0,0.0,46,0.00,,,0.00,WeatherTracker,2013-10-27 16:00:00,
2013-10-27 11:10:00,71.5,50.2,30.18,ESE,115,0.0,1.0,47,0.00,,,0.00,WeatherTracker,2013-10-27 16:10:00,
2013-10-27 11:20:00,72.1,50.7,30.18,SE,141,0.0,0.0,47,0.00,,,0.00,WeatherTracker,2013-10-27 16:20:00,
2013-10-27 11:30:00,72.6,51.2,30.18,West,279,0.0,5.0,47,0.00,,,0.00,WeatherTracker,2013-10-27 16:30:00,
2013-10-27 11:40:00,72.2,50.8,30.17,SSW,194,0.0,1.0,47,0.00,,,0.00,WeatherTracker,2013-10-27 16:40:00,
2013-10-27 11:45:00,72.0,51.2,30.17,South,170,0.0,2.0,48,0.00,,,0.00,WeatherTracker,2013-10-27 16:45:00,
2013-10-27 11:55:00,72.5,50.5,30.17,South,179,0.0,4.0,46,0.00,,,0.00,WeatherTracker,2013-10-27 16:55:00,
2013-10-27 12:00:00,72.2,51.4,30.16,South,173,0.0,0.0,48,0.00,,,0.00,WeatherTracker,2013-10-27 17:00:00,
2013-10-27 12:05:00,72.5,51.1,30.16,South,170,0.0,4.0,47,0.00,,,0.00,WeatherTracker,2013-10-27 17:05:00,
2013-10-27 12:15:00,73.0,51.6,30.15,ESE,115,0.0,1.0,47,0.00,,,0.00,WeatherTracker,2013-10-27 17:15:00,
2013-10-27 12:25:00,73.8,52.3,30.15,SSE,168,0.0,2.0,47,0.00,,,0.00,WeatherTracker,2013-10-27 17:25:00,
2013-10-27 12:30:00,73.5,51.4,30.15,SE,130,0.0,2.0,46,0.00,,,0.00,WeatherTracker,2013-10-27 17:30:00,
2013-10-27 12:40:00,73.9,51.8,30.15,SSE,165,0.0,6.0,46,0.00,,,0.00,WeatherTracker,2013-10-27 17:40:00,
2013-10-27 12:45:00,73.5,51.4,30.14,South,185,0.0,7.0,46,0.00,,,0.00,WeatherTracker,2013-10-27 17:45:00,
2013-10-27 12:50:00,73.2,51.7,30.14,SE,138,0.0,7.0,47,0.00,,,0.00,WeatherTracker,2013-10-27 17:50:00,
2013-10-27 12:55:00,73.8,52.3,30.14,SE,139,0.0,0.0,47,0.00,,,0.00,WeatherTracker,2013-10-27 17:55:00,
2013-10-27 13:05:00,74.0,52.5,30.13,SE,140,0.0,5.0,47,0.00,,,0.00,WeatherTracker,2013-10-27 18:05:00,
2013-10-27 13:10:00,74.1,53.1,30.12,SE,139,0.0,0.0,48,0.00,,,0.00,WeatherTracker,2013-10-27 18:10:00,
2013-10-27 13:20:00,75.5,53.3,30.12,SSW,213,0.0,4.0,46,0.00,,,0.00,WeatherTracker,2013-10-27 18:20:00,
2013-10-27 13:31:00,74.9,52.1,30.12,West,276,0.0,2.0,45,0.00,,,0.00,WeatherTracker,2013-10-27 18:31:00,
2013-10-27 13:40:00,74.7,51.9,30.11,SW,227,0.0,1.0,45,0.00,,,0.00,WeatherTracker,2013-10-27 18:40:00,
2013-10-27 13:45:00,74.1,52.0,30.11,SW,227,0.0,1.0,46,0.00,,,0.00,WeatherTracker,2013-10-27 18:45:00,
2013-10-27 13:55:00,74.2,52.7,30.11,SW,227,0.0,0.0,47,0.00,,,0.00,WeatherTracker,2013-10-27 18:55:00,
2013-10-27 14:00:00,74.9,52.1,30.11,SW,214,0.0,6.0,45,0.00,,,0.00,WeatherTracker,2013-10-27 19:00:00,
2013-10-27 14:10:00,73.9,52.4,30.11,SW,214,0.0,1.0,47,0.00,,,0.00,WeatherTracker,2013-10-27 19:10:00,
2013-10-27 14:20:00,74.7,52.5,30.11,SW,214,0.0,0.0,46,0.00,,,0.00,WeatherTracker,2013-10-27 19:20:00,
2013-10-27 14:26:00,74.9,52.1,30.11,SW,214,0.0,0.0,45,0.00,,,0.00,WeatherTracker,2013-10-27 19:26:00,
2013-10-27 14:35:00,74.6,53.0,30.11,SW,222,0.0,3.0,47,0.00,,,0.00,WeatherTracker,2013-10-27 19:35:00,
2013-10-27 14:40:00,74.2,52.1,30.11,SW,223,0.0,3.0,46,0.00,,,0.00,WeatherTracker,2013-10-27 19:40:00,
2013-10-27 14:45:00,73.9,52.4,30.11,SW,223,0.0,0.0,47,0.00,,,0.00,WeatherTracker,2013-10-27 19:45:00,
2013-10-27 14:50:00,73.7,53.3,30.12,SW,223,0.0,0.0,49,0.00,,,0.00,WeatherTracker,2013-10-27 19:50:00,
2013-10-27 15:00:00,74.0,53.6,30.11,West,271,0.0,2.0,49,0.00,,,0.00,WeatherTracker,2013-10-27 20:00:00,
2013-10-27 15:10:00,75.8,52.9,30.11,SSW,212,0.0,7.0,45,0.00,,,0.00,WeatherTracker,2013-10-27 20:10:00,
2013-10-27 15:15:00,75.4,53.2,30.11,SSW,212,0.0,0.0,46,0.00,,,0.00,WeatherTracker,2013-10-27 20:15:00,
2013-10-27 15:25:00,75.5,52.7,30.11,SW,215,0.0,0.0,45,0.00,,,0.00,WeatherTracker,2013-10-27 20:25:00,
2013-10-27 15:30:00,75.7,53.4,30.11,SW,216,0.0,0.0,46,0.00,,,0.00,WeatherTracker,2013-10-27 20:30:00,
2013-10-27 15:45:00,74.7,52.5,30.10,WSW,252,0.0,0.0,46,0.00,,,0.00,WeatherTracker,2013-10-27 20:45:00,
2013-10-27 15:50:00,74.3,52.7,30.10,WSW,252,0.0,0.0,47,0.00,,,0.00,WeatherTracker,2013-10-27 20:50:00,
2013-10-27 16:00:00,73.7,53.3,30.10,WSW,252,0.0,0.0,49,0.00,,,0.00,WeatherTracker,2013-10-27 21:00:00,
2013-10-27 16:05:00,73.7,53.3,30.10,WSW,252,0.0,0.0,49,0.00,,,0.00,WeatherTracker,2013-10-27 21:05:00,
2013-10-27 16:15:00,73.4,53.1,30.10,WSW,252,0.0,0.0,49,0.00,,,0.00,WeatherTracker,2013-10-27 21:15:00,
2013-10-27 16:20:00,73.1,52.8,30.10,WSW,252,0.0,0.0,49,0.00,,,0.00,WeatherTracker,2013-10-27 21:20:00,
2013-10-27 16:25:00,72.8,53.1,30.10,WSW,252,0.0,0.0,50,0.00,,,0.00,WeatherTracker,2013-10-27 21:25:00,
2013-10-27 16:30:00,72.6,53.4,30.10,WSW,252,0.0,0.0,51,0.00,,,0.00,WeatherTracker,2013-10-27 21:30:00,
2013-10-27 16:40:00,72.2,53.6,30.10,WSW,252,0.0,0.0,52,0.00,,,0.00,WeatherTracker,2013-10-27 21:40:00,
2013-10-27 16:45:00,72.2,55.6,30.10,WSW,252,0.0,0.0,56,0.00,,,0.00,WeatherTracker,2013-10-27 21:45:00,
2013-10-27 16:50:00,72.2,55.6,30.11,WSW,252,0.0,0.0,56,0.00,,,0.00,WeatherTracker,2013-10-27 21:50:00,
2013-10-27 16:55:00,72.1,55.5,30.11,WSW,252,0.0,0.0,56,0.00,,,0.00,WeatherTracker,2013-10-27 21:55:00,
2013-10-27 17:00:00,72.0,56.4,30.11,WSW,252,0.0,0.0,58,0.00,,,0.00,WeatherTracker,2013-10-27 22:00:00,
2013-10-27 17:10:00,71.6,57.9,30.10,WSW,252,0.0,0.0,62,0.00,,,0.00,WeatherTracker,2013-10-27 22:10:00,
2013-10-27 17:20:00,71.0,57.8,30.11,WSW,252,0.0,0.0,63,0.00,,,0.00,WeatherTracker,2013-10-27 22:20:00,
2013-10-27 17:30:00,70.4,57.2,30.11,WSW,252,0.0,0.0,63,0.00,,,0.00,WeatherTracker,2013-10-27 22:30:00,
2013-10-27 17:40:00,69.6,56.0,30.11,WSW,252,0.0,0.0,62,0.00,,,0.00,WeatherTracker,2013-10-27 22:40:00,
2013-10-27 17:45:00,69.2,56.1,30.11,WSW,252,0.0,0.0,63,0.00,,,0.00,WeatherTracker,2013-10-27 22:45:00,
2013-10-27 17:50:00,68.8,56.5,30.11,WSW,252,0.0,0.0,65,0.00,,,0.00,WeatherTracker,2013-10-27 22:50:00,
2013-10-27 18:00:00,68.0,56.2,30.10,WSW,252,0.0,0.0,66,0.00,,,0.00,WeatherTracker,2013-10-27 23:00:00,
2013-10-27 18:05:00,67.7,56.7,30.10,WSW,252,0.0,0.0,68,0.00,,,0.00,WeatherTracker,2013-10-27 23:05:00,
2013-10-27 18:15:00,66.8,56.3,30.10,WSW,252,0.0,0.0,69,0.00,,,0.00,WeatherTracker,2013-10-27 23:15:00,
2013-10-27 18:20:00,66.4,56.3,30.10,WSW,252,0.0,0.0,70,0.00,,,0.00,WeatherTracker,2013-10-27 23:20:00,
2013-10-27 18:30:00,65.6,55.9,30.10,WSW,252,0.0,0.0,71,0.00,,,0.00,WeatherTracker,2013-10-27 23:30:00,
2013-10-27 18:35:00,65.3,56.0,30.10,WSW,252,0.0,0.0,72,0.00,,,0.00,WeatherTracker,2013-10-27 23:35:00,
2013-10-27 18:45:00,64.7,55.8,30.11,WSW,252,0.0,0.0,73,0.00,,,0.00,WeatherTracker,2013-10-27 23:45:00,
2013-10-27 18:50:00,64.2,55.0,30.11,WSW,252,0.0,0.0,72,0.00,,,0.00,WeatherTracker,2013-10-27 23:50:00,
2013-10-27 18:55:00,64.0,54.8,30.11,WSW,252,0.0,0.0,72,0.00,,,0.00,WeatherTracker,2013-10-27 23:55:00,
2013-10-27 19:00:00,63.8,55.0,30.11,WSW,252,0.0,0.0,73,0.00,,,0.00,WeatherTracker,2013-10-28 00:00:00,
2013-10-27 19:10:00,63.3,54.9,30.10,WSW,252,0.0,0.0,74,0.00,,,0.00,WeatherTracker,2013-10-28 00:10:00,
2013-10-27 19:20:00,63.0,55.3,30.12,WSW,252,0.0,0.0,76,0.00,,,0.00,WeatherTracker,2013-10-28 00:20:00,
2013-10-27 19:25:00,62.8,55.1,30.12,WSW,252,0.0,0.0,76,0.00,,,0.00,WeatherTracker,2013-10-28 00:25:00,
2013-10-27 19:35:00,62.6,55.6,30.12,WSW,252,0.0,0.0,78,0.00,,,0.00,WeatherTracker,2013-10-28 00:35:00,
2013-10-27 19:45:00,62.4,55.4,30.13,WSW,252,0.0,0.0,78,0.00,,,0.00,WeatherTracker,2013-10-28 00:45:00,
2013-10-27 19:55:00,62.1,55.2,30.14,WSW,252,0.0,0.0,78,0.00,,,0.00,WeatherTracker,2013-10-28 00:55:00,
2013-10-27 20:00:00,62.0,54.7,30.14,WSW,252,0.0,0.0,77,0.00,,,0.00,WeatherTracker,2013-10-28 01:00:00,
2013-10-27 20:05:00,61.9,55.0,30.14,WSW,252,0.0,0.0,78,0.00,,,0.00,WeatherTracker,2013-10-28 01:05:00,
2013-10-27 20:10:00,61.8,55.2,30.13,WSW,252,0.0,0.0,79,0.00,,,0.00,WeatherTracker,2013-10-28 01:10:00,
2013-10-27 20:15:00,61.6,55.0,30.13,WSW,252,0.0,0.0,79,0.00,,,0.00,WeatherTracker,2013-10-28 01:15:00,
2013-10-27 20:25:00,61.4,55.9,30.13,WSW,252,0.0,0.0,82,0.00,,,0.00,WeatherTracker,2013-10-28 01:25:00,
2013-10-27 20:30:00,61.3,56.1,30.13,WSW,252,0.0,0.0,83,0.00,,,0.00,WeatherTracker,2013-10-28 01:30:00,
2013-10-27 20:35:00,61.1,55.9,30.13,WSW,252,0.0,0.0,83,0.00,,,0.00,WeatherTracker,2013-10-28 01:35:00,
2013-10-27 20:45:00,60.7,55.8,30.14,WSW,252,0.0,0.0,84,0.00,,,0.00,WeatherTracker,2013-10-28 01:45:00,
2013-10-27 20:50:00,60.5,55.3,30.14,WSW,252,0.0,0.0,83,0.00,,,0.00,WeatherTracker,2013-10-28 01:50:00,
2013-10-27 21:00:00,60.2,55.0,30.13,WSW,252,0.0,0.0,83,0.00,,,0.00,WeatherTracker,2013-10-28 02:00:00,
2013-10-27 21:05:00,60.1,55.2,30.13,WSW,252,0.0,0.0,84,0.00,,,0.00,WeatherTracker,2013-10-28 02:05:00,
2013-10-27 21:15:00,60.0,55.8,30.13,WSW,252,0.0,0.0,86,0.00,,,0.00,WeatherTracker,2013-10-28 02:15:00,
2013-10-27 21:25:00,59.8,55.6,30.13,WSW,252,0.0,0.0,86,0.00,,,0.00,WeatherTracker,2013-10-28 02:25:00,
2013-10-27 21:35:00,59.6,55.7,30.13,WSW,252,0.0,0.0,87,0.00,,,0.00,WeatherTracker,2013-10-28 02:35:00,
2013-10-27 21:45:00,59.4,55.5,30.13,WSW,252,0.0,0.0,87,0.00,,,0.00,WeatherTracker,2013-10-28 02:45:00,
2013-10-27 21:55:00,59.2,55.6,30.13,WSW,252,0.0,0.0,88,0.00,,,0.00,WeatherTracker,2013-10-28 02:55:00,
2013-10-27 22:00:00,59.1,55.2,30.13,WSW,252,0.0,0.0,87,0.00,,,0.00,WeatherTracker,2013-10-28 03:00:00,
2013-10-27 22:05:00,59.0,55.1,30.13,WSW,252,0.0,0.0,87,0.00,,,0.00,WeatherTracker,2013-10-28 03:05:00,
2013-10-27 22:15:00,58.7,54.8,30.13,WSW,252,0.0,0.0,87,0.00,,,0.00,WeatherTracker,2013-10-28 03:15:00,
2013-10-27 22:20:00,58.6,54.7,30.13,WSW,252,0.0,0.0,87,0.00,,,0.00,WeatherTracker,2013-10-28 03:20:00,
2013-10-27 22:30:00,58.4,54.5,30.14,WSW,252,0.0,0.0,87,0.00,,,0.00,WeatherTracker,2013-10-28 03:30:00,
2013-10-27 22:40:00,58.0,53.8,30.14,WSW,252,0.0,0.0,86,0.00,,,0.00,WeatherTracker,2013-10-28 03:40:00,
2013-10-27 22:50:00,57.7,53.5,30.14,WSW,252,0.0,0.0,86,0.00,,,0.00,WeatherTracker,2013-10-28 03:50:00,
2013-10-27 22:55:00,57.6,53.4,30.14,WSW,252,0.0,0.0,86,0.00,,,0.00,WeatherTracker,2013-10-28 03:55:00,
2013-10-27 23:05:00,57.3,53.1,30.13,WSW,252,0.0,0.0,86,0.00,,,0.00,WeatherTracker,2013-10-28 04:05:00,
2013-10-27 23:10:00,57.3,53.5,30.13,WSW,252,0.0,0.0,87,0.00,,,0.00,WeatherTracker,2013-10-28 04:10:00,
2013-10-27 23:20:00,57.4,53.9,30.13,WSW,252,0.0,0.0,88,0.00,,,0.00,WeatherTracker,2013-10-28 04:20:00,
2013-10-27 23:25:00,57.4,53.9,30.13,WSW,252,0.0,0.0,88,0.00,,,0.00,WeatherTracker,2013-10-28 04:25:00,
2013-10-27 23:30:00,57.5,54.0,30.13,WSW,252,0.0,0.0,88,0.00,,,0.00,WeatherTracker,2013-10-28 04:30:00,
2013-10-27 23:35:00,57.5,54.0,30.13,WSW,252,0.0,0.0,88,0.00,,,0.00,WeatherTracker,2013-10-28 04:35:00,
2013-10-27 23:40:00,57.6,54.1,30.13,WSW,252,0.0,0.0,88,0.00,,,0.00,WeatherTracker,2013-10-28 04:40:00,
2013-10-27 23:45:00,57.7,54.5,30.13,WSW,252,0.0,0.0,89,0.00,,,0.00,WeatherTracker,2013-10-28 04:45:00,
2013-10-27 23:50:00,57.8,54.6,30.13,WSW,252,0.0,0.0,89,0.00,,,0.00,WeatherTracker,2013-10-28 04:50:00,
2013-10-27 23:55:00,57.8,54.6,30.13,WSW,252,0.0,0.0,89,0.00,,,0.00,WeatherTracker,2013-10-28 04:55:00,